sat.trackr.live / text

‹ back to catalog

STARLINK-11141 [DTC]

NORAD 60066 · 2024-113H

PAYLOAD ACTIVE UNKNOWN

§ Identity

Operator
Country
US
Launch date
2024-06-19
Launch site
AFWTR
Launch vehicle
Mass (kg)
RCS (m²)

Purposes: comms

External: N2YO · Heavens-Above · Gunter

§ Orbital elements

Epoch: 2026-09-21T09:38:32.717184Z

Period
91.74 min
Inclination
53.1593°
Eccentricity
0.0001233
Mean motion
15.69708367 rev/d
Perigee alt
358.9 km
Apogee alt
360.6 km
Semi-major
6,737.9 km
B*
1.4252e-5
RAAN
306.1526°
Arg perigee
95.0918°
Mean anomaly
265.0241°
Rev number
13,030

§ Raw data

STARLINK-11141 [DTC]1 60066U 24113H   26264.40176756  .00001138  00000+0  14252-4 0  99952 60066  53.1593 306.1526 0001233  95.0918 265.0241 15.69708367130309

JSON: /api/v1/satellites/60066 · /tle

For live sub-satellite position, see the globe view (requires WebGL).

§ Visibility from observer

Set your observer location to see the next 7 days of passes ≥ 10°. The values pass through the URL so the page stays shareable.

No JS? Fill the form by hand. The geolocation button needs JavaScript.